Simultaneous Nadir Overpasses (SNOs) Predictions

Prediction of SNOs between GOES-17 and AQUA Satellite Orbit:

Table of predicted SNOs for the next 14.0 days since TLE Epoch: 7/29/2023
Index Date Time (GOES-17) GOES-17 Lat,Lon AQUA Lat,Lon Distance(km) Time Diff (sec)
1 07/29/2023 08:44:34 -0.01,-104.73 -0.26,-103.62 125.99 80
2 07/29/2023 21:05:24 0.01,-104.69 -0.87,-108.67 452.37 80
3 07/31/2023 20:51:06 -0.00,-104.69 -0.12,-105.18 56.33 80
4 08/02/2023 20:39:28 -0.00,-104.68 0.65,-101.69 340.07 80
5 08/03/2023 09:00:10 0.00,-104.71 0.45,-106.70 226.58 80
6 08/05/2023 08:43:11 0.00,-104.71 -0.30,-103.21 170.38 80
7 08/05/2023 21:04:02 -0.00,-104.67 -0.79,-108.26 408.07 80
8 08/07/2023 20:49:43 -0.01,-104.68 -0.00,-104.77 10.75 80
9 08/09/2023 20:38:02 -0.01,-104.67 0.69,-101.26 387.46 80
10 08/10/2023 08:58:45 0.01,-104.71 0.33,-106.29 178.49 80
